Merced, CA

8:02 AM PDT on August 23, 2017 (GMT -0700)
Merced Municipal-Macready

Weather History for KMCE - March, 2013

Change the Weather History Date:

Thursday, March 14, 2013

  Actual Average Record
Temperature  
Mean Temperature 64 °F 53 °F  
Max Temperature 81 °F 65 °F 84 °F (2015)
Min Temperature 48 °F 42 °F 33 °F (2002)
Degree Days  
Heating Degree Days 2    
Month to date heating degree days  
Since 1 July heating degree days  
Cooling Degree Days 0    
Month to date cooling degree days  
Year to date cooling degree days  
Growing Degree Days 14 (Base 50)    
Moisture  
Dew Point 50 °F    
Average Humidity 64    
Maximum Humidity 90    
Minimum Humidity 40    
Precipitation  
Precipitation 0.00 in 0.07 in 0.29 in (2003)
Month to date precipitation 1.14  
Year to date precipitation 6.09  
Snow  
Snow 0.00 in - - ()
Month to date snowfall  
Since 1 July snowfall  
Snow Depth -    
Sea Level Pressure  
Sea Level Pressure 30.08 in    
Wind  
Wind Speed 3 mph (NNW)    
Max Wind Speed 13 mph    
Max Gust Speed -    
Visibility 9 miles    
Events      
T = Trace of Precipitation, MM = Missing Value Source: NWS Daily Summary

Daily Weather History Graph

Daily Weather History Graph

Search for Another Location

Airport or City:

Trip Planner

Search our weather history database for the weather conditions in past years. The results will help you decide how hot, cold, wet, or windy it might be!

Date:

Astronomy

Mar. 14, 2013 Rise Set
Actual Time 7:14 AM PDT 7:08 PM PDT
Civil Twilight 6:48 AM PDT 7:34 PM PDT
Nautical Twilight 6:17 AM PDT 8:05 PM PDT
Astronomical Twilight 5:47 AM PDT 8:35 PM PDT
Moon 8:35 AM PDT (3/14) 10:24 PM PDT (3/14)
Length of Visible Light 12h 46m
Length of Day
11h 54m
Waxing Crescent, 9% of the Moon is Illuminated
Mar 14
Waxing Crescent
Mar 19
First Quarter
Mar 27
Full
Apr 2
Last Quarter
Apr 10
New

Hourly Weather History & Observations

Time (PDT) Temp. Dew Point Humidity Pressure Visibility Wind Dir Wind Speed Gust Speed Precip Events Conditions
12:53 AM 55.0 °F 48.0 °F 77% 30.09 in 7.0 mi Calm Calm - N/A   Clear
1:53 AM 52.0 °F 46.9 °F 83% 30.09 in 7.0 mi SSE 3.5 mph - N/A   Clear
2:53 AM 54.0 °F 48.9 °F 83% 30.08 in 10.0 mi East 3.5 mph - N/A   Clear
3:53 AM 54.0 °F 48.0 °F 80% 30.08 in 10.0 mi Calm Calm - N/A   Clear
4:53 AM 51.1 °F 46.9 °F 86% 30.09 in 10.0 mi Calm Calm - N/A   Clear
5:53 AM 51.1 °F 46.9 °F 86% 30.08 in 10.0 mi Calm Calm - N/A   Clear
6:53 AM 52.0 °F 46.9 °F 83% 30.09 in 10.0 mi Calm Calm - N/A   Clear
7:53 AM 48.9 °F 46.0 °F 90% 30.09 in 5.0 mi Calm Calm - N/A   Clear
8:53 AM 55.0 °F 50.0 °F 83% 30.11 in 6.0 mi Calm Calm - N/A   Haze
10:53 AM 66.9 °F 51.1 °F 57% 30.12 in 10.0 mi Calm Calm - N/A   Clear
11:53 AM 71.1 °F 51.1 °F 49% 30.12 in 10.0 mi NW 3.5 mph - N/A   Clear
12:53 PM 75.0 °F 52.0 °F 44% 30.10 in 10.0 mi North 4.6 mph - N/A   Clear
1:53 PM 77.0 °F 52.0 °F 42% 30.09 in 10.0 mi North 3.5 mph - N/A   Clear
2:53 PM 79.0 °F 53.1 °F 40% 30.08 in 10.0 mi WNW 6.9 mph - N/A   Clear
3:53 PM 79.0 °F 53.1 °F 40% 30.07 in 10.0 mi NNW 10.4 mph - N/A   Clear
4:53 PM 79.0 °F 54.0 °F 42% 30.05 in 9.0 mi North 12.7 mph - N/A   Clear
5:53 PM 78.1 °F 53.1 °F 42% 30.05 in 9.0 mi NNW 11.5 mph - N/A   Clear
6:53 PM 73.0 °F 53.1 °F 49% 30.05 in 8.0 mi NNW 9.2 mph - N/A   Clear
7:53 PM 69.1 °F 54.0 °F 58% 30.04 in 9.0 mi NNW 8.1 mph - N/A   Clear
8:53 PM 66.9 °F 53.1 °F 61% 30.05 in 10.0 mi NW 9.2 mph - N/A   Clear
9:53 PM 64.9 °F 51.1 °F 61% 30.06 in 10.0 mi NNW 9.2 mph - N/A   Clear
10:53 PM 62.1 °F 50.0 °F 65% 30.07 in 10.0 mi NNW 9.2 mph - N/A   Clear
11:53 PM 60.1 °F 48.0 °F 64% 30.07 in 10.0 mi NNW 9.2 mph - N/A   Clear